Location: Grieser Field
(39.7333°N, 81.7975°W)
Time: 23:20:22
(UTC-04:00)

Meteor 2-1 Rocket - Visible Passes

Search period start: 24 May 2015 00:00
Search period end: 03 June 2015 00:00
Orbit: 831 x 906 km, 81.3° (Epoch: 24 May)

Date Brightness Start Highest point End Pass type
(mag) Time Alt. Az. Time Alt. Az. Time Alt. Az.
24 May 4.6 01:19:26 10° NNW 01:24:39 56° WNW 01:24:39 56° WNW visible
24 May 6.0 23:30:45 10° NNE 23:34:39 19° ENE 23:35:44 18° E visible
25 May 4.6 01:12:49 10° NNW 01:18:07 56° WNW 01:18:07 56° WNW visible
25 May 5.9 23:24:05 10° NNE 23:28:03 19° ENE 23:29:12 18° E visible
26 May 4.6 01:06:14 10° NNW 01:11:36 55° W 01:11:36 55° W visible
26 May 5.9 23:17:26 10° NNE 23:21:27 20° ENE 23:22:41 19° E visible
27 May 4.6 00:59:37 10° NNW 01:05:05 54° W 01:05:05 54° W visible
27 May 5.8 23:10:47 10° NNE 23:14:50 20° ENE 23:16:11 19° E visible
28 May 4.6 00:53:02 10° NNW 00:58:35 53° W 00:58:35 53° W visible
28 May 5.8 23:04:08 10° NNE 23:08:14 20° ENE 23:09:42 19° E visible
29 May 4.6 00:46:25 10° NNW 00:51:59 52° W 00:52:06 52° W visible
29 May 5.8 22:57:29 10° NNE 23:01:38 21° ENE 23:03:14 19° E visible
30 May 4.6 00:39:49 10° NNW 00:45:22 50° W 00:45:37 50° WSW visible
30 May 5.7 22:50:49 10° NNE 22:55:01 21° ENE 22:56:46 19° E visible
31 May 4.7 00:33:13 10° NNW 00:38:44 49° W 00:39:10 48° WSW visible
31 May 5.7 22:44:10 10° NNE 22:48:25 22° ENE 22:50:19 19° E visible
01 Jun 4.7 00:26:37 10° NNW 00:32:06 48° W 00:32:43 46° WSW visible
01 Jun 5.7 22:37:31 10° NNE 22:41:48 22° ENE 22:43:53 18° E visible
02 Jun 4.8 00:20:01 10° NNW 00:25:28 47° W 00:26:17 44° WSW visible
02 Jun 5.7 22:30:52 10° NNE 22:35:12 23° ENE 22:37:28 18° E visible
